Showing default

OAO 2, 3597

Orbit data source: Space-Track

OAO 2, 3597 is a payload satellite owned by GSFC (US) in LEO that was launched on Sat, 07 Dec 1968 UTC via an ATLAS SLV-3C CENTAUR launch vehicle from the Air Force Eastern Test Range (AFETR). Payload-class satellites include a variety of spacecraft equipped with specific instruments for various scientific and technological missions. These include communications satellites like Starlink; space stations such as the ISS; scientific satellites like the Hubble; Earth observation satellites from companies like Planet Labs, Umbra, and HawkEye 360; GPS; miniature CubeSats for education and research; and military/defense satellites.

Loading next visibility...
Identifier
3597, 1968-110A
Orbit
LEO
Country
Flag of USUS
Related business
Manufacturer
Grummann
Mission
Spacecraft
Bus & Motor
OAO, Unknown motor
Mass
2,018 kg wet, 2,018 kg dry
Launch date (UTC)
1968-12-07 (57 years ago)
Launch vehicle
ATLAS SLV-3C CENTAUR
Launch site
Air Force Eastern Test Range (AFETR)
Object type
Payload
Rocket body
Debris
Shape & HBR
Unknown
Radar Cross Section
Large (>1 m²)

Expand to show TLE details & history
Last TLE update: 13 hours ago

TLE from 13 hours ago
0 OAO 2
1  3597U 68110A   25310.91233884  .00000363  00000-0  10304-3 0  9992
2  3597  34.9929 230.6694 0006171 289.4390  70.5634 14.47209479  1308
Epoch: 2025-11-06T21:53Z
TLE epoch observation values (Epoch: 2025-11-06T21:53:46.075Z)
Latitude
-0.00001°
Longitude
-144.13644°
Altitude
732.262 km
Speed
7.492 km/s
True Right ascension
15h 22m 40s
True Declination
0° 00' 00"
Sunlit
Object was in daylight at epoch
Visualization orbit readout
Latitude
Unknown
Longitude
Unknown
Altitude
Unknown
Speed
Unknown
Apparent Right ascension
Unknown
Apparent Declination
Unknown
Sunlit
N/A
Visualization observer readout
Local Sidereal Time
07:09:00
Azimuth
Unknown
Elevation
Unknown
Doppler factor
Unknown
Orbital elements
Apogee altitude
742.311 km
Perigee altitude
733.529 km
Semi-major axis
7,116.057 km
Eccentricity
0.00062
Inclination
34.9929°
RAAN
230.6694°
Arg. of periapsis
289.439°
True anomaly
70.6301°
Mean anomaly
70.5634°
Eccentric anomaly
70.59675°
Mean motion
3.61563 °/min
Orbital period
99.57 mins
BSTAR
0.00010304
Loading maneuver chart data...
Computing Atmospheric mass density...
Loading historical data...
Loading historical data...
Loading historical data...
Loading historical data...
Loading historical data...
Loading historical data...
Loading historical data...
Other satellites on launch #110 in the year 1968 (1968-12-07 UTC)

Documentation

Showing up to 5 results
|